{"data":{"norad_id":49302,"epoch":"2026-05-24T23:43:11.508960Z","epoch_age_seconds":66160,"freshness":"FRESH","line1":"1 49302U 21090Z   26144.98832765 -.00000034  00000+0 -11773-3 0  9995","line2":"2 49302  87.9161 309.5893 0001657  90.0492 270.0830 13.19727532223391","mean_motion":13.19727532,"eccentricity":0.0001657,"inclination_deg":87.9161,"raan_deg":309.5893,"arg_perigee_deg":90.0492,"mean_anomaly_deg":270.083,"bstar":-0.00011773,"rev_number":22339,"period_min":109.11343175646,"perigee_km":1184.5075394861,"apogee_km":1187.0142152427,"semimajor_km":7563.8978773644,"source":"CELESTRAK","updated_at":"2026-05-25T13:38:22.524313Z"}}